TimeEST,TemperatureF,Dew PointF,Humidity,Sea Level PressureIn,VisibilityMPH,Wind Direction,Wind SpeedMPH,Gust SpeedMPH,PrecipitationIn,Events,Conditions,WindDirDegrees,DateUTC
12:15 AM,61.7,58.5,89,30.22,10.0,South,4.6,-,N/A,,Clear,190,2012-11-13 05:15:00
12:35 AM,61.5,58.5,90,30.22,10.0,SSW,3.5,-,N/A,,Clear,210,2012-11-13 05:35:00
12:55 AM,61.3,58.5,90,30.21,10.0,SSW,4.6,-,N/A,,Clear,200,2012-11-13 05:55:00
1:15 AM,61.5,58.6,90,30.21,10.0,South,4.6,-,N/A,,Clear,190,2012-11-13 06:15:00
1:35 AM,61.5,58.6,90,30.20,10.0,South,4.6,-,N/A,,Scattered Clouds,180,2012-11-13 06:35:00
1:55 AM,62.2,58.6,88,30.20,7.0,South,4.6,-,N/A,Rain,Rain,180,2012-11-13 06:55:00
2:15 AM,63.5,60.8,91,30.20,10.0,South,4.6,-,N/A,Rain,Rain,180,2012-11-13 07:15:00
2:35 AM,63.5,61.0,91,30.20,10.0,SSW,4.6,-,N/A,,Mostly Cloudy,210,2012-11-13 07:35:00
2:55 AM,62.2,60.1,93,30.20,10.0,SSW,3.5,-,N/A,,Mostly Cloudy,200,2012-11-13 07:55:00
3:15 AM,61.7,59.7,93,30.19,10.0,SSW,3.5,-,N/A,,Mostly Cloudy,210,2012-11-13 08:15:00
3:35 AM,61.9,59.9,93,30.19,10.0,SW,3.5,-,N/A,,Scattered Clouds,220,2012-11-13 08:35:00
3:55 AM,61.7,59.9,94,30.19,10.0,SSW,3.5,-,N/A,,Scattered Clouds,210,2012-11-13 08:55:00
4:35 AM,61.5,59.9,94,30.18,10.0,Calm,Calm,-,N/A,,Scattered Clouds,0,2012-11-13 09:35:00
4:55 AM,61.0,59.5,95,30.18,10.0,Calm,Calm,-,N/A,,Scattered Clouds,0,2012-11-13 09:55:00
5:15 AM,61.3,59.9,95,30.19,10.0,SW,3.5,-,N/A,,Scattered Clouds,220,2012-11-13 10:15:00
5:35 AM,61.5,59.9,94,30.19,10.0,Calm,Calm,-,N/A,,Scattered Clouds,0,2012-11-13 10:35:00
5:55 AM,61.5,59.9,94,30.18,10.0,Calm,Calm,-,N/A,,Scattered Clouds,0,2012-11-13 10:55:00
6:15 AM,61.7,59.9,94,30.19,10.0,SSW,3.5,-,N/A,,Scattered Clouds,200,2012-11-13 11:15:00
6:35 AM,61.7,59.7,93,30.20,10.0,South,3.5,-,N/A,,Scattered Clouds,180,2012-11-13 11:35:00
6:55 AM,61.9,59.7,93,30.20,10.0,SSW,4.6,-,N/A,,Scattered Clouds,200,2012-11-13 11:55:00
7:15 AM,62.4,60.1,92,30.20,10.0,SSE,4.6,-,N/A,Rain,Rain,160,2012-11-13 12:15:00
7:35 AM,62.4,60.1,92,30.21,10.0,South,4.6,-,N/A,,Mostly Cloudy,190,2012-11-13 12:35:00
7:55 AM,62.8,60.3,91,30.22,10.0,SSW,3.5,-,N/A,,Scattered Clouds,210,2012-11-13 12:55:00
8:15 AM,63.0,59.9,90,30.22,10.0,SSW,6.9,-,N/A,,Scattered Clouds,210,2012-11-13 13:15:00
8:35 AM,62.8,60.1,91,30.23,10.0,South,4.6,-,N/A,,Mostly Cloudy,190,2012-11-13 13:35:00
8:55 AM,63.1,60.6,91,30.22,10.0,SSE,4.6,-,N/A,,Mostly Cloudy,160,2012-11-13 13:55:00
9:15 AM,63.7,61.0,91,30.22,10.0,South,3.5,-,N/A,,Scattered Clouds,180,2012-11-13 14:15:00
9:35 AM,64.2,61.3,90,30.23,10.0,South,3.5,-,N/A,,Scattered Clouds,180,2012-11-13 14:35:00
9:55 AM,64.9,61.9,90,30.23,10.0,Calm,Calm,-,N/A,,Scattered Clouds,0,2012-11-13 14:55:00
10:15 AM,64.0,59.9,86,30.26,10.0,North,12.7,23.0,N/A,Rain,Rain,350,2012-11-13 15:15:00
10:35 AM,54.9,51.3,88,30.27,7.0,North,12.7,24.2,N/A,,Overcast,350,2012-11-13 15:35:00
10:55 AM,52.3,50.2,92,30.27,4.0,North,11.5,25.3,N/A,Rain,Light Rain,360,2012-11-13 15:55:00
11:15 AM,51.8,50.4,95,30.27,5.0,North,13.8,25.3,N/A,,Drizzle,360,2012-11-13 16:15:00
11:35 AM,51.6,50.2,95,30.27,7.0,North,13.8,28.8,N/A,Rain,Rain,360,2012-11-13 16:35:00
11:55 AM,50.9,49.3,94,30.27,7.0,North,13.8,25.3,N/A,,Light Drizzle,360,2012-11-13 16:55:00
12:15 PM,50.5,48.7,94,30.27,10.0,North,12.7,27.6,N/A,,Overcast,360,2012-11-13 17:15:00
12:35 PM,50.7,48.9,94,30.26,7.0,North,16.1,25.3,N/A,,Overcast,360,2012-11-13 17:35:00
12:55 PM,50.5,48.7,94,30.26,7.0,North,13.8,25.3,N/A,,Overcast,10,2012-11-13 17:55:00
1:15 PM,50.2,48.0,92,30.25,10.0,NNE,13.8,25.3,N/A,,Overcast,20,2012-11-13 18:15:00
1:35 PM,50.5,47.8,90,30.25,10.0,North,12.7,25.3,N/A,,Overcast,10,2012-11-13 18:35:00
1:55 PM,50.4,47.5,90,30.25,10.0,North,13.8,24.2,N/A,,Overcast,10,2012-11-13 18:55:00
2:15 PM,50.4,46.9,88,30.25,10.0,North,15.0,21.9,N/A,,Overcast,10,2012-11-13 19:15:00
2:35 PM,50.2,46.9,89,30.25,10.0,North,12.7,24.2,N/A,,Overcast,10,2012-11-13 19:35:00
2:55 PM,50.0,46.9,89,30.25,10.0,NNE,13.8,19.6,N/A,,Overcast,20,2012-11-13 19:55:00
3:15 PM,50.4,46.6,87,30.26,10.0,North,11.5,23.0,N/A,,Overcast,10,2012-11-13 20:15:00
3:35 PM,50.2,46.6,87,30.27,10.0,North,11.5,24.2,N/A,,Overcast,360,2012-11-13 20:35:00
3:55 PM,49.8,46.2,87,30.27,10.0,North,11.5,21.9,N/A,,Overcast,10,2012-11-13 20:55:00
4:15 PM,49.3,45.9,88,30.28,10.0,North,11.5,18.4,N/A,,Overcast,360,2012-11-13 21:15:00
4:35 PM,49.5,46.4,89,30.28,10.0,North,8.1,23.0,N/A,,Overcast,360,2012-11-13 21:35:00
4:55 PM,49.5,46.6,90,30.27,7.0,North,10.4,17.3,N/A,Rain,Light Rain,10,2012-11-13 21:55:00
5:15 PM,49.5,47.1,92,30.28,7.0,North,10.4,19.6,N/A,Rain,Rain,10,2012-11-13 22:15:00
5:35 PM,49.6,47.7,93,30.29,10.0,North,10.4,19.6,N/A,,Light Drizzle,10,2012-11-13 22:35:00
5:55 PM,49.6,47.7,93,30.29,7.0,North,11.5,17.3,N/A,,Overcast,10,2012-11-13 22:55:00
6:15 PM,49.8,47.7,92,30.30,7.0,North,10.4,17.3,N/A,,Overcast,360,2012-11-13 23:15:00
6:35 PM,49.6,47.5,92,30.30,10.0,NNE,9.2,17.3,N/A,,Overcast,20,2012-11-13 23:35:00
6:55 PM,49.5,47.3,92,30.31,10.0,North,12.7,18.4,N/A,,Overcast,360,2012-11-13 23:55:00
7:15 PM,49.8,46.9,90,30.31,10.0,North,9.2,17.3,N/A,,Overcast,10,2012-11-14 00:15:00
7:35 PM,50.0,46.6,88,30.32,10.0,North,10.4,19.6,N/A,,Overcast,10,2012-11-14 00:35:00
7:55 PM,49.6,46.6,89,30.33,7.0,North,12.7,18.4,N/A,,Overcast,10,2012-11-14 00:55:00
8:15 PM,49.3,46.4,90,30.33,7.0,North,12.7,18.4,N/A,,Overcast,10,2012-11-14 01:15:00
8:35 PM,48.7,46.4,92,30.34,5.0,North,9.2,16.1,N/A,,Overcast,350,2012-11-14 01:35:00
8:55 PM,48.2,46.4,93,30.33,4.0,North,8.1,19.6,N/A,,Overcast,360,2012-11-14 01:55:00
9:15 PM,47.8,46.2,94,30.34,4.0,North,11.5,20.7,N/A,,Overcast,360,2012-11-14 02:15:00
9:35 PM,47.3,45.9,95,30.34,5.0,North,11.5,21.9,N/A,,Overcast,10,2012-11-14 02:35:00
9:55 PM,47.5,45.9,94,30.34,7.0,North,11.5,19.6,N/A,,Overcast,10,2012-11-14 02:55:00
10:15 PM,47.5,45.7,93,30.34,10.0,North,12.7,20.7,N/A,,Overcast,10,2012-11-14 03:15:00
10:35 PM,47.7,45.3,92,30.34,10.0,North,12.7,25.3,N/A,,Overcast,360,2012-11-14 03:35:00
10:55 PM,47.5,44.8,90,30.34,10.0,North,11.5,18.4,N/A,,Overcast,10,2012-11-14 03:55:00
11:15 PM,47.7,44.6,89,30.34,10.0,North,10.4,23.0,N/A,,Overcast,10,2012-11-14 04:15:00
11:35 PM,47.7,44.6,89,30.34,10.0,North,11.5,19.6,N/A,,Overcast,10,2012-11-14 04:35:00
11:55 PM,48.0,44.8,89,30.35,7.0,North,10.4,21.9,N/A,,Overcast,10,2012-11-14 04:55:00